Wind_Speed
18 18 18 17 18 18 18 18 18 18 18 19 20 20 19 20 20 20 20 20 20 20 19 19 19 18 18 17 17 17 17 18 18 17 17 17 16 17
18 18 18 18 19 19 18 19 19 19 19 20 20 21 21 22 21 21 21 21 20 20 20 19 19 19 18 17 17 17 17 18 18 18 17 17 17 17
19 19 19 19 20 20 20 20 20 20 20 20 20 21 22 22 22 21 21 21 21 21 20 20 19 19 19 19 18 18 18 18 18 18 18 18 18 18
20 20 21 22 21 21 21 22 22 21 21 20 21 21 22 22 22 22 21 21 22 21 21 20 20 20 19 19 19 19 18 19 19 19 19 19 19 19
21 21 21 22 22 23 23 23 23 23 23 22 22 21 22 22 22 21 21 22 22 21 20 20 20 20 19 19 19 19 19 19 19 20 20 20 19 19
22 22 22 22 23 24 24 24 25 24 24 23 22 22 22 22 22 21 21 21 21 21 20 20 20 20 20 19 19 19 19 19 20 20 20 20 20 19
23 23 23 24 23 24 24 24 25 25 24 24 23 23 22 22 22 22 22 21 20 20 20 19 20 20 20 20 20 20 19 20 20 20 21 21 21 20
25 25 25 25 25 25 25 25 25 25 24 24 24 24 23 23 23 22 21 20 20 20 21 20 20 21 21 21 21 21 21 20 21 21 22 22 22 22
26 26 26 26 26 26 26 26 26 26 25 25 25 24 24 24 23 23 22 21 21 21 22 21 21 22 22 21 22 22 22 22 22 23 23 23 23 23
27 27 27 27 27 27 27 27 27 27 26 26 26 25 25 25 24 24 23 23 22 22 22 22 22 23 22 22 22 22 22 23 23 23 23 23 24 24
28 28 28 28 28 28 28 28 28 28 27 27 27 27 26 26 25 25 25 25 24 24 24 24 23 23 23 23 23 24 24 24 24 24 24 24 25 24
28 28 28 28 28 28 29 29 29 28 28 27 27 27 27 27 27 28 27 26 26 25 26 25 25 25 24 25 26 26 26 25 25 26 25 25 25 25
29 29 29 29 29 29 29 29 29 29 29 28 28 28 28 28 29 29 28 28 28 28 28 27 27 27 26 26 27 27 27 27 27 27 26 26 25 25
30 30 30 31 31 31 31 31 30 30 30 30 30 30 30 29 29 30 30 30 30 29 29 29 29 29 28 28 28 28 28 28 28 28 28 27 27 26
31 31 31 32 32 32 32 32 32 31 31 31 32 32 32 32 31 31 31 31 31 30 30 31 31 31 30 30 29 29 29 29 29 29 29 28 27 27
31 31 31 31 32 32 33 32 33 33 33 33 33 34 33 32 32 32 31 31 32 32 32 33 33 33 32 31 31 30 29 29 29 30 29 29 28 28
31 31 31 32 32 32 33 33 33 33 33 33 33 33 33 32 31 32 32 32 32 32 33 33 33 33 33 32 31 31 30 29 29 29 29 29 29 29
31 30 31 31 31 32 32 32 33 33 33 33 33 33 34 33 33 33 33 33 33 33 33 33 33 33 32 32 31 31 30 30 29 29 29 29 29 30
32 31 32 32 32 32 32 32 32 33 33 33 34 34 35 35 34 34 34 34 34 34 33 33 33 32 31 31 30 31 30 30 30 29 29 29 29 29
33 33 33 33 33 33 33 33 33 33 33 34 35 35 35 35 35 35 35 34 34 34 34 33 33 32 32 31 31 31 31 31 31 30 30 30 29 30
34 33 33 33 33 33 34 34 34 34 34 35 35 35 35 35 34 34 34 34 34 34 34 34 34 33 32 32 32 31 32 32 32 32 31 31 31 30
33 33 32 33 33 33 33 33 34 34 34 34 34 34 34 34 34 33 33 34 34 34 34 34 34 34 33 33 33 32 32 33 33 33 33 33 33 32
31 31 31 31 32 32 32 32 32 33 33 33 34 34 34 34 33 33 33 33 33 33 34 34 34 35 35 34 34 34 33 34 34 34 34 35 35 34
Wind_Direction
276 275 274 275 277 280 281 280 281 281 279 279 279 280 280 279 280 278 279 280 280 281 283 283 281 280 278 275 271 269 266 264 265 266 265 264 263 266
276 275 274 274 276 279 280 280 281 283 283 282 281 282 282 281 280 279 279 279 279 280 282 282 281 279 276 273 271 269 267 265 263 263 263 262 263 265
275 274 274 274 276 277 277 278 280 284 285 283 284 284 284 283 282 282 281 281 279 280 280 280 278 276 273 270 271 269 267 265 262 263 264 264 266 267
275 274 275 275 275 276 278 278 279 281 283 283 285 286 285 285 284 283 281 281 280 278 278 278 276 273 271 271 269 268 265 266 263 264 266 267 267 267
276 275 276 276 275 276 278 278 278 278 279 281 284 286 287 287 286 284 282 281 279 277 277 275 275 272 270 269 268 267 267 266 264 265 267 266 267 268
276 276 276 276 277 278 278 278 278 278 278 279 282 283 284 286 285 284 283 281 279 277 275 275 274 273 271 268 268 267 266 264 264 264 265 267 270 271
276 276 277 278 278 278 278 278 278 278 279 278 278 279 281 283 283 282 283 282 278 277 274 273 273 274 271 270 269 271 269 269 268 267 269 270 270 271
276 277 277 278 278 277 278 277 277 277 277 276 277 278 279 281 280 279 279 279 278 276 275 273 274 273 271 270 271 270 269 270 270 269 270 271 272 272
277 276 276 276 278 278 277 276 276 276 275 275 276 277 278 279 277 275 275 275 278 276 274 274 275 274 271 271 271 270 269 270 271 270 270 270 271 273
277 277 276 276 277 277 276 276 276 276 275 275 275 275 277 277 276 273 272 275 276 273 274 274 275 275 272 273 272 272 272 270 270 270 270 270 271 272
279 278 277 276 276 276 275 274 275 275 275 275 274 274 275 276 276 275 274 275 274 274 273 273 274 274 273 271 272 274 275 273 271 270 269 271 269 269
278 278 277 277 276 277 275 274 274 273 272 272 272 273 274 275 276 276 274 273 272 273 273 273 273 274 274 273 272 273 274 274 273 273 271 272 268 267
278 277 277 276 276 276 276 276 275 273 270 270 271 273 276 276 274 273 273 273 273 272 272 273 272 273 274 273 272 272 273 274 273 271 270 271 270 267
278 277 276 275 275 275 276 276 275 273 271 271 273 275 277 276 275 273 272 272 273 273 273 273 273 272 273 273 272 272 273 273 271 270 269 270 270 268
278 278 276 275 274 274 274 273 272 271 271 272 273 275 276 275 273 273 272 272 273 272 272 273 273 273 273 274 273 272 271 270 270 269 268 268 267 266
278 278 277 276 275 273 272 271 271 270 270 271 273 274 275 274 273 273 272 271 272 273 272 272 273 273 273 273 273 271 270 269 269 269 267 266 266 266
277 278 278 277 275 273 272 270 270 271 271 271 272 273 274 273 273 273 272 273 273 274 273 273 272 273 273 272 272 270 269 269 267 266 265 265 265 264
278 278 279 279 277 274 272 270 270 269 271 272 273 274 275 275 274 273 273 272 273 274 272 272 272 273 272 272 272 270 268 267 267 266 265 264 264 264
280 279 279 278 277 275 273 272 272 272 271 272 273 275 275 275 274 273 274 274 274 273 272 272 272 271 271 271 270 270 268 267 267 267 267 266 265 264
282 280 279 277 276 275 273 272 272 271 272 273 273 274 275 275 273 273 273 274 273 273 272 271 270 270 270 270 269 267 267 266 266 266 267 268 267 267
282 280 279 278 276 275 274 272 271 271 272 273 273 272 273 273 273 273 273 273 272 272 271 269 269 268 268 267 266 266 266 266 266 266 266 267 268 268
283 281 280 279 278 277 275 274 272 271 272 273 273 272 271 272 272 271 271 271 270 270 270 269 268 267 266 265 265 266 265 265 265 266 266 267 268 268
284 282 281 281 280 279 277 275 273 272 273 273 273 272 271 271 271 270 271 271 271 271 270 269 268 267 265 265 265 266 266 266 265 266 267 268 268 268
Height
5798 5798 5799 5799 5799 5799 5798 5799 5799 5799 5798 5797 5797 5796 5796 5796 5795 5795 5794 5793 5792 5792 5791 5789 5788 5787 5786 5786 5786 5787 5788 5789 5790 5790 5790 5791 5792 5793
5793 5794 5794 5794 5794 5794 5794 5793 5793 5794 5793 5793 5792 5791 5790 5790 5789 5789 5788 5787 5787 5786 5785 5784 5783 5783 5782 5782 5782 5783 5783 5784 5785 5786 5786 5787 5788 5789
5788 5788 5789 5789 5789 5789 5789 5788 5788 5788 5788 5787 5786 5785 5784 5783 5783 5783 5782 5782 5781 5781 5780 5779 5778 5778 5778 5778 5778 5778 5778 5779 5780 5781 5782 5783 5784 5785
5783 5783 5783 5783 5783 5783 5783 5783 5783 5782 5782 5781 5780 5779 5778 5777 5777 5776 5776 5776 5775 5775 5775 5774 5774 5773 5773 5773 5773 5773 5773 5774 5775 5776 5777 5778 5779 5779
5777 5777 5777 5777 5777 5777 5777 5777 5776 5776 5775 5775 5774 5773 5772 5771 5770 5770 5770 5770 5769 5769 5769 5769 5769 5768 5768 5768 5768 5768 5768 5769 5770 5771 5772 5773 5773 5774
5771 5771 5771 5771 5771 5771 5771 5770 5770 5769 5768 5768 5768 5767 5766 5765 5764 5764 5764 5763 5763 5763 5763 5763 5763 5763 5763 5763 5763 5763 5763 5764 5765 5765 5766 5767 5767 5768
5765 5765 5765 5764 5764 5764 5764 5763 5763 5762 5762 5761 5761 5761 5760 5759 5758 5758 5758 5758 5757 5757 5758 5758 5758 5758 5757 5757 5758 5758 5758 5759 5759 5760 5760 5761 5761 5761
5758 5758 5758 5757 5757 5757 5756 5756 5756 5755 5755 5754 5754 5754 5753 5753 5752 5752 5752 5752 5752 5752 5752 5752 5752 5752 5752 5752 5752 5752 5753 5753 5753 5754 5754 5754 5755 5755
5750 5750 5750 5750 5750 5749 5749 5748 5748 5747 5747 5747 5747 5747 5746 5746 5746 5745 5745 5745 5745 5745 5745 5746 5746 5746 5746 5746 5746 5746 5747 5747 5747 5747 5747 5747 5748 5747
5742 5742 5742 5742 5742 5742 5741 5741 5740 5740 5740 5740 5740 5740 5739 5739 5738 5739 5739 5739 5739 5739 5739 5740 5739 5739 5740 5740 5739 5740 5740 5740 5740 5740 5740 5740 5740 5739
5734 5734 5734 5734 5734 5733 5733 5733 5733 5733 5732 5732 5732 5732 5731 5732 5731 5731 5731 5731 5732 5732 5732 5732 5732 5732 5732 5733 5732 5732 5732 5732 5732 5732 5732 5732 5732 5732
5726 5726 5725 5725 5725 5725 5724 5724 5724 5724 5724 5724 5724 5724 5724 5724 5724 5724 5724 5724 5724 5725 5724 5724 5724 5724 5725 5725 5725 5725 5725 5724 5724 5724 5724 5724 5724 5724
5717 5717 5716 5716 5716 5716 5715 5715 5715 5715 5715 5715 5716 5716 5716 5716 5715 5715 5715 5715 5715 5716 5716 5716 5716 5716 5716 5716 5716 5716 5716 5716 5716 5715 5715 5715 5715 5715
5708 5708 5707 5706 5706 5706 5706 5706 5706 5706 5706 5706 5706 5707 5707 5707 5706 5706 5706 5706 5706 5706 5706 5706 5707 5707 5707 5707 5707 5707 5707 5707 5707 5706 5706 5706 5706 5706
5697 5697 5697 5696 5696 5696 5696 5696 5696 5696 5696 5697 5696 5697 5697 5697 5697 5696 5696 5696 5696 5696 5696 5696 5696 5696 5697 5697 5698 5698 5698 5697 5697 5697 5697 5697 5697 5697
5687 5687 5686 5686 5685 5685 5685 5685 5685 5686 5686 5686 5686 5686 5686 5686 5686 5686 5686 5686 5686 5686 5686 5686 5686 5686 5686 5687 5687 5687 5687 5687 5687 5687 5687 5687 5688 5688
5677 5677 5676 5675 5675 5674 5674 5675 5675 5675 5675 5676 5676 5676 5676 5676 5675 5676 5676 5675 5676 5676 5675 5675 5675 5675 5675 5676 5676 5677 5677 5677 5677 5677 5677 5677 5678 5678
5667 5666 5666 5665 5664 5664 5664 5664 5664 5665 5665 5665 5665 5665 5665 5665 5665 5665 5664 5664 5664 5664 5664 5664 5664 5664 5664 5665 5665 5666 5666 5666 5667 5667 5667 5667 5668 5668
5657 5656 5656 5655 5654 5654 5653 5654 5654 5654 5654 5654 5654 5654 5654 5654 5654 5653 5653 5652 5652 5652 5652 5652 5652 5652 5653 5654 5655 5655 5655 5656 5656 5657 5657 5657 5658 5658
5647 5646 5645 5644 5643 5643 5643 5643 5643 5643 5643 5643 5643 5643 5643 5642 5642 5642 5641 5641 5640 5640 5641 5641 5641 5641 5642 5644 5644 5644 5644 5645 5645 5646 5647 5647 5647 5647
5636 5635 5634 5633 5632 5632 5632 5632 5632 5632 5632 5631 5631 5631 5631 5631 5630 5630 5630 5629 5629 5629 5629 5630 5630 5630 5631 5631 5633 5634 5634 5634 5634 5635 5636 5636 5637 5637
5625 5624 5623 5622 5621 5621 5620 5620 5620 5620 5620 5620 5619 5619 5619 5619 5619 5619 5618 5618 5618 5618 5618 5619 5619 5619 5619 5620 5621 5622 5623 5623 5623 5624 5624 5625 5625 5626
5614 5613 5612 5611 5610 5609 5609 5609 5608 5608 5608 5608 5608 5608 5608 5608 5608 5608 5607 5607 5607 5607 5607 5607 5607 5608 5608 5609 5610 5610 5611 5612 5612 5613 5613 5613 5614 5614